Torna al catalogo

STARLINK-32201

AttivoComunicazioniVLEO
NORAD 61512·PAYLOAD·🇺🇸 United States

Lanciato Oct 15, 2024 da Cape Canaveral Space Force Station

Loading…

Prossimi Passaggi (prossime 24 ore)

TLE

AggiornatoSource: CelesTrak SupGP

Epoca: Sep 14, 2026, 21:01 UTC

1 61512C 24183D   26257.87618056 -.00020407  00000+0 -60307-3 0  2576
2 61512  53.1581 327.7898 0001104  84.8037 208.6046 15.34393254    16

Traccia STARLINK-32201 in tempo reale con AllMySat

Download on the App Store